{"data":{"norad_id":68530,"epoch":"2026-09-20T03:29:19.912704Z","epoch_age_seconds":78194,"freshness":"FRESH","line1":"1 68530U 26068Y   26263.14536936  .00037796  00000+0  11218-2 0  9996","line2":"2 68530  53.1580 303.4341 0001290  85.4718 274.6431 15.34465807 26759","mean_motion":15.34465807,"eccentricity":0.000129,"inclination_deg":53.158,"raan_deg":303.4341,"arg_perigee_deg":85.4718,"mean_anomaly_deg":274.6431,"bstar":0.0011218,"rev_number":2675,"period_min":93.843733332534,"perigee_km":461.62521176459,"apogee_km":463.39009808556,"semimajor_km":6840.6446549251,"source":"CELESTRAK","updated_at":"2026-09-20T09:00:43.907589Z"}}